Home > Weather > Newport > Past weeks

Flag for United Kingdom Past Weather in Newport, Wales, United Kingdom — Yesterday and Last 2 Weeks

Now
54 °F

Cool.


Feels Like: 52 °F
Forecast: 56 / 62 °F
Wind: 7 mph from Northwest

Location: Bristol / Lulsgate

Current Time: Jul 31, 2016 at 2:51:48 AM

Latest Report: Jul 31, 2016 at 2:20 AM


Visibility: N/A

Pressure: 30.04 "Hg

Humidity: 82%

Dew Point: 48 °F

Location of NewportLocation

Past Weather in Newport — Graph

°F

Newport Temperature Yesterday

Maximum temperature yesterday: 66 °F (at 11:50 AM)
Minimum temperature yesterday: 57 °F (at 3:50 AM)
Average temperature yesterday: 61 °F

High & Low Weather Summary for the Past Weeks

 TemperatureHumidityPressure
High86 °F (Jul 19, 12:50 PM)100% (Jul 16, 1:20 AM)30.30 "Hg (Jul 16, 1:20 AM)
Low52 °F (Jul 28, 1:50 AM)46% (Jul 19, 2:20 PM)29.71 "Hg (Jul 20, 3:20 AM)
Average63 °F85%30.06 "Hg
* Reported Jul 16 1:20 AM — Jul 31 1:50 AM, Newport, Weather by CustomWeather, © 2016

Note: Actual official high and low records may vary slightly from our data, if they occured in-between our weather recording intervals... More about our weather records

Advertising

Newport Weather History for the Previous 24 Hours

Scroll right to see more
 ConditionsComfort  
Time TempWeatherWind HumidityBarometerVisibility
1:50 AM
Sun, Jul 31
54 °FCool.6 mph82%30.04 "HgN/A
1:20 AM55 °FCool.7 mph77%30.04 "HgN/A
12:50 AM55 °FCool.8 mph77%30.01 "HgN/A
12:20 AM57 °FCool.8 mph72%30.01 "HgN/A
11:50 PM
Sat, Jul 30
57 °FCool.8 mph72%30.01 "HgN/A
11:20 PM59 °FPassing clouds.8 mph72%30.01 "HgN/A
10:50 PM59 °FCool.8 mph68%30.01 "HgN/A
10:20 PM61 °FCool.9 mph68%30.01 "HgN/A
9:50 PM61 °FPartly sunny.7 mph68%30.01 "HgN/A
9:20 PM61 °FPartly sunny.8 mph72%30.01 "HgN/A
8:50 PM61 °FCool.7 mph77%29.98 "HgN/A
8:20 PM63 °FPassing clouds.5 mph68%29.98 "HgN/A
7:50 PM64 °FPassing clouds.5 mph68%29.98 "HgN/A
7:20 PM64 °FPassing clouds.8 mph64%29.98 "HgN/A
6:50 PM64 °FPassing clouds.7 mph73%29.98 "HgN/A
6:20 PM64 °FMild.8 mph73%29.98 "HgN/A
5:50 PM64 °FMild.9 mph73%29.98 "HgN/A
5:20 PM66 °FMild.10 mph68%29.98 "HgN/A
4:50 PM64 °FMild.13 mph68%29.98 "HgN/A
4:20 PM66 °FMild.13 mph64%29.98 "HgN/A
3:50 PM66 °FPassing clouds.10 mph68%29.98 "HgN/A
3:20 PM64 °FMild.9 mph68%29.98 "HgN/A
2:50 PM64 °FPassing clouds.13 mph68%29.98 "HgN/A
2:20 PM66 °FScattered clouds.7 mph60%29.98 "HgN/A
1:50 PM66 °FPartly sunny.6 mph56%29.98 "HgN/A
1:20 PM66 °FScattered clouds.5 mph60%29.98 "HgN/A
12:50 PM66 °FScattered clouds.6 mph60%29.98 "HgN/A
12:20 PM66 °FPassing clouds.6 mph56%29.98 "HgN/A
11:50 AM66 °FPassing clouds.5 mph64%29.98 "HgN/A
11:20 AM64 °FMild.7 mph64%29.98 "HgN/A
10:50 AM63 °FMild.6 mph73%29.98 "HgN/A
10:20 AM63 °FMild.6 mph68%29.98 "HgN/A
9:50 AM61 °FPassing clouds.6 mph77%29.98 "HgN/A
9:20 AM61 °FPartly sunny.6 mph77%29.98 "HgN/A
8:50 AM59 °FPartly sunny.7 mph82%29.98 "HgN/A
8:20 AM57 °FOvercast.7 mph88%29.95 "HgN/A
7:50 AM57 °FOvercast.5 mph88%29.95 "HgN/A
7:20 AM57 °FOvercast.7 mph82%29.95 "HgN/A
6:50 AM57 °FOvercast.6 mph88%29.95 "HgN/A
6:20 AM57 °FOvercast.6 mph88%29.95 "HgN/A
5:50 AM57 °FOvercast.5 mph88%29.92 "HgN/A
5:20 AM57 °FPassing clouds.3 mph88%29.92 "HgN/A
4:50 AM57 °FPassing clouds.3 mph88%29.92 "HgN/A
4:20 AM57 °FPassing clouds.3 mph88%29.92 "HgN/A
3:50 AM57 °FCool.3 mph88%29.92 "HgN/A
3:20 AM59 °FPassing clouds.3 mph88%29.92 "HgN/A
2:50 AM59 °FPassing clouds.3 mph94%29.92 "HgN/A
2:20 AM59 °FPassing clouds.2 mph94%29.92 "HgN/A
Weather by CustomWeather, © 2016

See weather overviewHow to use our weather pages